Regional Weather Roundup
Issued by NWS

Home | Current Version | Previous Version | Text Only | Print | Product List | Glossary Off
Versions: 1 2 3 4 5 6 7 8 9 10 11 12 13 14 15 16 17 18 19 20 21 22 23 24 25 26 27 28 29 30 31 32 33 34 35 36 37 38 39 40 41 42 43 44 45 46 47 48 49 50

000
ASUS43 KMPX 230710
RWRMN
WEATHER ROUNDUP FOR MINNESOTA
NATIONAL WEATHER SERVICE TWIN CITIES/CHANHASSEN MN
200 AM CDT WED APR 23 2014


NOTE: "FAIR" INDICATES FEW OR NO CLOUDS BELOW 12,000 FEET WITH NO
SIGNIFICANT WEATHER AND/OR OBSTRUCTIONS TO VISIBILITY. N/A MEANS
CURRENT SKY AND/OR WEATHER CONDITIONS ARE NOT AVAILABLE.

MNZ060>063-068>070-230800-
   Twin Cities Metro

CITY           SKY/WX    TMP DP  RH WIND       PRES   REMARKS
TWIN CITIES    PTCLDY    44  25  47 E9        30.08S
ST PAUL        PTCLDY    43  25  49 S7        30.09F
CRYSTAL        PTCLDY    45  24  43 E6        30.07S
BLAINE         PTCLDY    43  27  52 E5        30.08S
EDEN PRAIRIE   PTCLDY    45  24  43 SE5       30.07R
LAKEVILLE      PTCLDY    36  27  69 CALM      30.08R
SOUTH ST PAUL  PTCLDY    44  26  47 S3        30.09R
LAKE ELMO      FAIR      39  28  65 E6        30.09F
$$
MNZ001>005-007-008-013>017-022>024-027-028-230800-
   Northwest Minnesota

CITY           SKY/WX    TMP DP  RH WIND       PRES   REMARKS
BEMIDJI        PTCLDY    30  21  70 E5        30.04F WCI  25
HALLOCK        CLOUDY    39  27  60 E13       29.99F
ROSEAU         CLEAR     37  25  60 E9        30.04F
WARROAD        CLEAR     30  25  80 E5        30.06F WCI  25
THIEF RVR FALL PTCLDY    39  23  52 E12       30.01F
CROOKSTON      CLEAR     43  27  52 SE10      29.99F
FOSSTON        PTCLDY    39  25  56 SE12      30.01F
DETROIT LAKES  PTCLDY    43  28  56 SE10      30.01S
MOORHEAD       MOCLDY    46  28  49 SE8       29.97F
PARK RAPIDS    CLEAR     39  23  52 E7        30.02F
$$
MNZ006-009>011-018-025>026-230800-
   North Central Minnesota

CITY           SKY/WX    TMP DP  RH WIND       PRES   REMARKS
BAUDETTE       PTCLDY    35  22  58 SE6       30.07F WCI  30
FLAG ISLAND    CLEAR     30  21  69 CALM      30.06F
INTL FALLS     CLEAR     26  22  84 CALM      30.09S
WASKISH        PTCLDY    36  23  60 E6        30.07S
BIG FORK       CLEAR     27  21  80 CALM      30.09F
LONGVILLE      CLEAR     27  25  93 CALM      30.06F
GRAND RAPIDS   CLEAR     37  18  44 SE6       30.08F
CRANE LAKE     CLEAR     21  18  86 CALM      30.13S
ORR            CLEAR     27  21  80 CALM      30.08S
COOK           CLEAR     25  21  86 CALM      30.11R
$$
MNZ012-019>021-037-230800-
   Northeast Minnesota

CITY           SKY/WX    TMP DP  RH WIND       PRES   REMARKS
DULUTH         CLEAR     36  20  52 E3        30.10S
ELY            CLEAR     25  21  86 CALM      30.11S
HIBBING        CLEAR     26  22  84 CALM      30.10R
EVELETH        CLEAR     27  23  86 CALM      30.12S
DULUTH HARBOR  CLEAR     30 N/A N/A CALM      30.14S
TWO HARBORS    CLEAR     27  21  80 CALM      30.11R
SILVER BAY     CLEAR     25  25 100 CALM      30.11S
GRAND MARAIS     N/A     29  25  85 NW5       30.14S WCI  24
G MARAIS ARPRT CLEAR     25  19  80 W3        30.11S
$$
MNZ029>031-032-039>041-046>048-054>057-064-230800-
   West Central Minnesota

CITY           SKY/WX    TMP DP  RH WIND       PRES   REMARKS
FERGUS FALLS   CLOUDY    48  25  40 SE15      29.95F
WHEATON        CLOUDY    52  36  54 SE15      29.98S
MORRIS         CLOUDY    48  32  53 SE16      29.98S
ALEXANDRIA     MOCLDY    45  27  49 SE13G22   30.01F
ELBOW LAKE     CLOUDY    47  29  49 SE14      29.98F
WADENA         PTCLDY    39  25  56 E7        30.02S
GLENWOOD       MOCLDY    43  30  61 E13       30.02F
APPLETON       CLOUDY    50  32  50 SE12      29.99S
BENSON         CLOUDY    48  30  49 S13       30.01S
ORTONVILLE     CLOUDY    50  32  50 SE16      29.96S
MADISON        CLOUDY    54  34  47 SE17      29.97F
WILLMAR        FAIR      46  30  53 SE15      30.03S
$$
MNZ033>034-036-042>043-049>051-058-059-230800-
   Central Minnesota

CITY           SKY/WX    TMP DP  RH WIND       PRES   REMARKS
ST CLOUD       PTCLDY    44  23  43 SE5       30.06S
SAUK CENTRE    FAIR      42  28  57 E7        30.04S
PAYNESVILLE    MOCLDY    45  26  47 E10       30.04S
AITKIN         CLEAR     30  25  80 CALM      30.06F
PINE RIVER     CLEAR     36  25  64 CALM      30.08F
BRAINERD       CLEAR     38  25  59 CALM      30.06F
STAPLES        PTCLDY    39  25  56 SE3       30.04S
LONG PRAIRIE   FAIR      43  27  52 E7        30.04S
LITTLE FALLS   PTCLDY    43  23  45 SE8       30.06R
LITCHFIELD     MOCLDY    45  30  57 E10       30.05S
BUFFALO        CLEAR     40  26  56 E6        30.08R
MAPLE LAKE     PTCLDY    41  29  61 E3        30.07S
$$
MNZ037-044-045-052-053-230800-
   East Central Minnesota

CITY           SKY/WX    TMP DP  RH WIND       PRES   REMARKS
PRINCETON      PTCLDY    43  25  49 E3        30.08S
MORA           CLEAR     32  28  86 CALM      30.10S
CAMBRIDGE      PTCLDY    45  28  53 E6        30.06F
RUSH CITY      CLEAR     38  23  55 E3        30.09S
MOOSE LAKE     CLEAR     28  23  80 CALM      30.08F
HINCKLEY       FAIR      30  28  93 CALM      30.09F
CLOQUET        CLEAR     30  21  69 E3        30.10S
MCGREGOR       CLEAR     34  30  86 CALM      30.09S
$$
MNZ071>073-080-081-089-090-097-098-230800-
   Southwest Minnesota

CITY           SKY/WX    TMP DP  RH WIND       PRES   REMARKS
MONTEVIDEO     CLOUDY    48  34  57 S16       30.01R
GRANITE FALLS  CLOUDY    49  32  51 E13       30.02R
CANBY          LGT RAIN  51  35  54 SE14      29.97F
MARSHALL       CLOUDY    52  32  46 SE13G21   29.99S
REDWOOD FALLS  CLOUDY    50  29  44 SE15      30.00F
OLIVIA         CLOUDY    50  32  50 SE13      30.01S
PIPESTONE      CLOUDY    52  36  54 SE15      29.94F
WINDOM         CLOUDY    52  36  54 SE14      30.01S
WORTHINGTON    CLOUDY    52  30  43 SE14      30.01S
JACKSON        CLOUDY    50  32  50 SE12      30.02S
TRACY          CLOUDY    52  34  51 SE13      30.00F
SLAYTON        CLOUDY    50  32  49 SE17      29.99S
$$
MNZ065>067-074>077-082>085-091>093-230800-
   South Central Minnesota

CITY           SKY/WX    TMP DP  RH WIND       PRES   REMARKS
MANKATO        CLOUDY    46  27  46 E10       30.06S
NEW ULM        CLOUDY    50  28  43 SE13      30.03F
ST JAMES       CLOUDY    50  32  50 E12       30.04F
FAIRMONT       CLOUDY    48  34  57 SE10      30.05F
GLENCOE        MOCLDY    44  28  54 E8        30.05S
FARIBAULT      MOCLDY    48  21  34 E6        30.07S
OWATONNA       MOCLDY    45  27  49 E10       30.07S
WASECA         CLOUDY    41  28  60 E9        30.08S
ALBERT LEA     MOCLDY    46  28  49 E8        30.06S
$$
MNZ078>079-086>088-094>096-230800-
   Southeast Minnesota

CITY           SKY/WX    TMP DP  RH WIND       PRES   REMARKS
ROCHESTER      PTCLDY    41  25  53 E13       30.08F
RED WING       CLEAR     34  27  75 E6        30.09F WCI  29
STANTON        PTCLDY    43  25  49 E6        30.06F
DODGE CENTER   PTCLDY    41  30  65 E7        30.07S
WINONA         CLEAR     37  34  87 CALM      30.12S
AUSTIN         MOCLDY    43  30  61 E6        30.06F
PRESTON        PTCLDY    43  26  52 E8        30.09S
$$
ABBREVIATIONS USED IN REMARKS
   TC - TEMPERATURES IN CELSIUS
  WCI - WIND CHILL INDEX
   HX - HEAT INDEX
  VSB - VISIBILITY
$$


USA.gov is the U.S. government's official web portal to all federal, state and local government web resources and services.